Meteo Giornale » Osservazioni meteo Stati Uniti (USA) » Sylvania
ore: 18:15 - Osservazioni Meteo Sylvania
Lat. 32° 39' N Lon. 81° 36' W Alt. 57 metri s.l.m.
30 °C
Foschia
Temp. 24 Ore
21 °C
32 °C
Sud-Est
7.4 Km/h
Dew point 24 °C
Umidità 70 %
Visibilità 8 Km
Il sole sorge alle ore 07:00
Il sole tramonta alle ore 19:52
| Data e Ora | Cielo e Fenomeni | T °C | DP °C | Um. % | Pres. hPa | Vis. km | Vento km/h | |
|---|---|---|---|---|---|---|---|---|
| Oggi h: 18:15 | Foschia | 30 | 24 | 70 | 1018 | 8 | SE 7.4 | |
| Oggi h: 17:55 | Foschia | 30 | 24 | 70 | 1018 | 6 | N 5.5 | |
| Oggi h: 17:35 | Foschia | 29 | 24 | 74 | 1018 | 8 | N 5.5 | |
| Oggi h: 17:15 | Foschia | 31 | 25 | 70 | 1018 | 8 | S/SE 9.3 | |
| Oggi h: 16:55 | Foschia | 30 | 24 | 70 | 1018 | 8 | S 9.3 | |
| Oggi h: 16:35 | Molto Nuvoloso | 30 | 23 | 66 | 1018 | 11 | E/SE 9.3 | |
| Oggi h: 16:15 | Foschia | 31 | 22 | 58 | 1018 | 8 | N 0 | |
| Oggi h: 15:55 | Foschia | 30 | 23 | 66 | 1018 | 8 | E 7.4 | |
| Oggi h: 15:35 | Foschia | 31 | 23 | 62 | 1018 | 8 | N 0 | |
| Oggi h: 15:15 | Foschia | 30 | 24 | 70 | 1018 | 6 | E/SE 7.4 | |
| Oggi h: 14:55 | Foschia | 30 | 23 | 66 | 1019 | 8 | E/SE 7.4 | |
| Oggi h: 14:35 | Foschia | 32 | 23 | 59 | 1019 | 8 | N 5.5 | |
| Oggi h: 14:15 | Foschia | 31 | 23 | 62 | 1019 | 8 | E 9.3 | |
| Oggi h: 13:55 | Nuvoloso | 31 | 24 | 66 | 1020 | 10 | N 5.5 | |
| Oggi h: 13:35 | Nuvoloso | 30 | 24 | 70 | 1020 | 10 | N 0 | |
| Oggi h: 13:15 | Nuvoloso | 30 | 23 | 66 | 1020 | 11 | E/SE 7.4 | |
| Oggi h: 12:55 | Foschia | 29 | 24 | 74 | 1020 | 8 | E/NE 7.4 | |
| Oggi h: 12:35 | Foschia | 29 | 24 | 74 | 1020 | 8 | E/NE 7.4 | |
| Oggi h: 12:15 | Foschia | 29 | 24 | 74 | 1020 | 8 | N 0 | |
| Oggi h: 11:55 | Foschia | 29 | 24 | 74 | 1021 | 8 | N 5.5 | |
| Oggi h: 11:35 | Foschia | 29 | 25 | 79 | 1021 | 8 | N/NE 7.4 | |
| Oggi h: 11:15 | Foschia | 27 | 26 | 94 | 1021 | 8 | N 5.5 | |
| Oggi h: 10:55 | Nuvoloso | 27 | 26 | 94 | 1021 | 11 | NE 9.3 | |
| Oggi h: 10:35 | Nuvoloso | 25 | 25 | 100 | 1020 | 10 | N/NE 7.4 | |
| Oggi h: 10:15 | Nuvoloso | 25 | 25 | 100 | 1020 | 10 | N 5.5 | |
| Oggi h: 09:55 | Molto Nuvoloso | 24 | 24 | 100 | 1020 | 11 | N 5.5 | |
| Oggi h: 09:35 | Foschia | 23 | 23 | 100 | 1020 | 5 | N 0 | |
| Oggi h: 09:15 | Foschia | 23 | 23 | 100 | 1020 | 2 | N 0 | |
| Oggi h: 08:55 | Nebbia | 23 | 23 | 100 | 1021 | 2 | N 0 | |
| Oggi h: 08:35 | Pioggia | 23 | 23 | 100 | 1021 | 0 | E 7.4 | |
| Oggi h: 08:15 | Pioggia | 22 | 22 | 100 | 1020 | 0 | N 0 | |
| Oggi h: 07:55 | Pioggia | 22 | 22 | 100 | 1020 | 0 | NE 9.3 | |
| Oggi h: 07:35 | Nebbia | 22 | 22 | 100 | 1020 | 2 | NE 9.3 | |
| Oggi h: 07:15 | Nebbia | 22 | 22 | 100 | 1020 | 2 | N 5.5 | |
| Oggi h: 06:55 | Foschia | 22 | 22 | 100 | 1019 | 5 | N 0 | |
| Oggi h: 06:35 | Foschia | 22 | 22 | 100 | 1019 | 5 | N 0 | |
| Oggi h: 06:15 | Foschia | 21 | 21 | 100 | 1019 | 2 | N 0 | |
| Oggi h: 05:55 | Foschia | 21 | 21 | 100 | 1019 | 8 | N 0 | |
| Oggi h: 05:35 | Foschia | 21 | 21 | 100 | 1019 | 6 | N 0 | |
| Oggi h: 05:15 | Foschia | 21 | 21 | 100 | 1019 | 5 | N 0 | |
| Oggi h: 04:55 | Foschia | 21 | 21 | 100 | 1019 | 6 | N 0 | |
| Oggi h: 04:35 | Foschia | 21 | 21 | 100 | 1019 | 8 | N 0 | |
| Oggi h: 04:15 | Foschia | 21 | 21 | 100 | 1019 | 8 | N 0 | |
| Oggi h: 03:55 | Foschia | 21 | 21 | 100 | 1019 | 6 | N 0 | |
| Oggi h: 03:35 | Foschia | 21 | 21 | 100 | 1019 | 6 | N 0 | |
| Oggi h: 03:15 | Foschia | 21 | 21 | 100 | 1019 | 6 | N 0 | |
| Oggi h: 02:55 | Foschia | 21 | 21 | 100 | 1019 | 6 | N 0 | |
| Oggi h: 02:35 | Foschia | 21 | 21 | 100 | 1019 | 6 | N 0 | |
| Oggi h: 02:15 | Foschia | 21 | 21 | 100 | 1019 | 6 | N 0 | |
| Oggi h: 01:55 | Foschia | 22 | 22 | 100 | 1019 | 6 | N 0 | |
| Oggi h: 01:35 | Foschia | 22 | 22 | 100 | 1019 | 8 | N 0 | |
| Oggi h: 01:15 | Foschia | 22 | 22 | 100 | 1020 | 6 | N 0 | |
| Oggi h: 00:55 | Foschia | 22 | 22 | 100 | 1019 | 6 | N 0 | |
| Oggi h: 00:35 | Foschia | 22 | 22 | 100 | 1020 | 8 | N 0 | |
| Oggi h: 00:15 | Foschia | 22 | 22 | 100 | 1020 | 6 | N 0 | |
| Ieri h: 23:55 | Foschia | 22 | 22 | 100 | 1020 | 8 | N 0 | |
| Ieri h: 23:35 | Foschia | 23 | 23 | 100 | 1020 | 6 | N 0 | |
| Ieri h: 23:15 | Foschia | 23 | 23 | 100 | 1020 | 6 | N 0 | |
| Ieri h: 22:55 | Foschia | 23 | 23 | 100 | 1020 | 8 | N 0 | |
| Ieri h: 22:35 | Foschia | 23 | 23 | 100 | 1020 | 8 | N 0 | |
| Ieri h: 22:15 | Foschia | 23 | 23 | 100 | 1020 | 6 | N 0 | |
| Ieri h: 21:55 | Foschia | 23 | 23 | 100 | 1020 | 5 | N 0 | |
| Ieri h: 21:35 | Foschia | 23 | 23 | 100 | 1020 | 6 | N 0 | |
| Ieri h: 21:15 | Foschia | 24 | 24 | 100 | 1020 | 8 | N 0 | |
| Ieri h: 20:55 | Foschia | 24 | 24 | 100 | 1019 | 8 | N 0 | |
| Ieri h: 20:35 | Foschia | 24 | 24 | 100 | 1019 | 8 | N 0 | |
| Ieri h: 20:15 | Foschia | 24 | 24 | 100 | 1019 | 8 | N 0 | |
| Ieri h: 19:55 | Foschia | 24 | 24 | 100 | 1019 | 8 | N 0 | |
| Ieri h: 19:35 | Foschia | 24 | 24 | 100 | 1019 | 8 | N 0 | |
| Ieri h: 19:15 | Foschia | 25 | 25 | 100 | 1019 | 8 | N 0 | |
| Ieri h: 18:55 | Pioviggine | 24 | 24 | 100 | 1019 | 10 | N 0 | |
| Ieri h: 18:35 | Pioggia | 24 | 24 | 100 | 1019 | 10 | N 0 | |



